Regional Weather Roundup
Issued by NWS

Home | Current Version | Previous Version | Graphics & Text | Print | Product List | Glossary On
Versions: 1 2 3 4 5 6 7 8 9 10 11 12 13 14 15 16 17 18 19 20 21 22 23 24 25 26 27 28 29 30 31 32 33 34 35 36 37 38 39 40 41 42 43 44 45 46 47 48 49 50
000
ASUS43 KMPX 291101
RWRMN
WEATHER ROUNDUP FOR MINNESOTA
NATIONAL WEATHER SERVICE TWIN CITIES/CHANHASSEN MN
600 AM CDT SUN MAY 29 2016


NOTE: "FAIR" INDICATES FEW OR NO CLOUDS BELOW 12,000 FEET WITH NO
SIGNIFICANT WEATHER AND/OR OBSTRUCTIONS TO VISIBILITY. N/A MEANS
CURRENT SKY AND/OR WEATHER CONDITIONS ARE NOT AVAILABLE.

MNZ060>063-068>070-291200-
   Twin Cities Metro

CITY           SKY/WX    TMP DP  RH WIND       PRES   REMARKS
TWIN CITIES    CLOUDY    62  59  90 W8        29.86R
ST PAUL        CLOUDY    62  60  93 VRB6      29.86R
CRYSTAL        CLOUDY    62  57  83 W12       29.85R
BLAINE         CLOUDY    63  63 100 W7        29.86R
EDEN PRAIRIE   CLOUDY    62  58  86 W8        29.87R
SOUTH ST PAUL  MOCLDY    62  60  94 W7        29.86R
LAKE ELMO      CLOUDY    61  61 100 W5        29.87R
$$
MNZ001>005-007-008-013>017-022>024-027-028-291200-
   Northwest Minnesota

CITY           SKY/WX    TMP DP  RH WIND       PRES   REMARKS
BEMIDJI        CLOUDY    54  54  98 W9        29.85S
HALLOCK        CLOUDY    57  55  94 N7        29.88S
ROSEAU         DRIZZLE   55  50  82 NW6       29.86R
WARROAD        RAIN      54  50  87 NW5       29.86R
THIEF RVR FALL CLOUDY    55  54  94 W7        29.90R
CROOKSTON      CLOUDY    59  57  94 CALM      29.89S
FOSSTON        CLOUDY    54  54 100 W5        29.89R
DETROIT LAKES  CLOUDY    57  55  94 NW8       29.90R
MOORHEAD       MOCLDY    57  55  94 W6        29.91R FOG
PARK RAPIDS    CLOUDY    58  55  90 NW10      29.86R
MAHNOMEN       CLOUDY    56  56  99 W7        29.88R
$$
MNZ006-009>011-018-025>026-291200-
   North Central Minnesota

CITY           SKY/WX    TMP DP  RH WIND       PRES   REMARKS
BAUDETTE       CLOUDY    54  53  97 NW10      29.83R
FLAG ISLAND    LGT RAIN  54  52  94 NW12      29.83R
INTL FALLS     LGT RAIN  55  55 100 W7        29.79R VSB 1/2
WASKISH        DRIZZLE   55  54  94 W8        29.83R
BIG FORK       CLOUDY    55  54  94 W3        29.81S
LONGVILLE      LGT RAIN  57  57 100 W6        29.84R
GRAND RAPIDS   LGT RAIN  59  57  93 SW8       29.82R FOG
CRANE LAKE     LGT RAIN  55  55 100 CALM      29.78S
ORR            FOG       57  55  94 CALM      29.75R VSB 1
COOK           CLOUDY    59  57  94 SW3       29.78R
WALKER         DRIZZLE   55  55  97 W7        29.85R
$$
MNZ012-019>021-037-291200-
   Northeast Minnesota

CITY           SKY/WX    TMP DP  RH WIND       PRES   REMARKS
DULUTH         FOG       57  56  96 W8        29.79R VSB 3/4
ELY            DRIZZLE   57  57 100 CALM      29.77S
HIBBING        CLOUDY    57  57 100 W3        29.78S FOG
EVELETH        CLOUDY    57  55  94 SW5       29.79S FOG
DULUTH HARBOR  CLOUDY    54  54 100 SW6       29.80R
TWO HARBORS    FOG       55  52  88 SW3       29.77S VSB 1/2
SILVER BAY     DRIZZLE   55  55 100 CALM      29.76R
GRAND MARAIS     N/A     45  44  97 CALM      29.76S
G MARAIS ARPRT FOG       55  54  94 CALM      29.77S VSB<1/4
$$
MNZ029>031-032-039>041-046>048-054>057-064-291200-
   West Central Minnesota

CITY           SKY/WX    TMP DP  RH WIND       PRES   REMARKS
FERGUS FALLS   PTCLDY    55  55 100 NW7       29.88R FOG
WHEATON        CLEAR     57  55  94 CALM      29.92S FOG
MORRIS           N/A     54  52  94 W5        29.90R FOG
ALEXANDRIA     CLOUDY    59  56  89 NW13      29.90R
ELBOW LAKE     FOG       56  56 100 W6        29.91R VSB 1
WADENA         DRIZZLE   57  55  94 W8        29.88R
GLENWOOD       CLOUDY    57  57 100 W9        29.90R FOG
APPLETON       CLOUDY    57  55  94 W7        29.91R
ORTONVILLE     PTCLDY    59  55  88 W7        29.91R
MADISON        MOCLDY    57  55  94 W6        29.92R
WILLMAR        FAIR      59  57  94 W7        29.92R FOG
$$
MNZ033>034-036-042>043-049>051-058-059-291200-
   Central Minnesota

CITY           SKY/WX    TMP DP  RH WIND       PRES   REMARKS
ST CLOUD       LGT RAIN  60  59  96 W10       29.86R
SAUK CENTRE    CLOUDY    59  57  95 W7        29.89R
PAYNESVILLE    CLOUDY    60  59  97 W10       29.90R
AITKIN         CLOUDY    61  55  82 CALM      29.82R
PINE RIVER     DRIZZLE   57  57 100 W7        29.88R
BRAINERD       CLOUDY    59  57  93 W10G16    29.85R
STAPLES        DRIZZLE   57  55  94 W9        29.87R
LONG PRAIRIE   CLOUDY    59  55  88 SW8       29.89R
LITTLE FALLS   DRIZZLE   59  55  88 W5        29.86S
LITCHFIELD     CLOUDY    63  61  94 W8        29.90R
BUFFALO        DRIZZLE   60  57  90 W8        29.89R
MAPLE LAKE     DRIZZLE   61  60  96 W7        29.88R
HUTCHINSON     CLOUDY    61  59  95 W9        29.91R FOG
$$
MNZ037-044-045-052-053-291200-
   East Central Minnesota

CITY           SKY/WX    TMP DP  RH WIND       PRES   REMARKS
PRINCETON      RAIN      61  57  88 W5        29.86R
MORA           CLOUDY    55  55 100 W7        29.85R
CAMBRIDGE      CLOUDY    63  54  72 W5        29.83R
RUSH CITY      CLOUDY    60  58  92 W3        29.84R
MOOSE LAKE     CLOUDY    57  55  94 SW3       29.80R FOG
HINCKLEY       CLOUDY    59  59 100 SW5       29.82S
CLOQUET        FOG       55  55 100 CALM      29.80R VSB 1
MCGREGOR       CLOUDY    59  57  94 W5        29.82R
$$
MNZ071>073-080-081-089-090-097-098-291200-
   Southwest Minnesota

CITY           SKY/WX    TMP DP  RH WIND       PRES   REMARKS
MONTEVIDEO     CLOUDY    57  57 100 W5        29.93R
GRANITE FALLS  PTCLDY    57  55  95 W5        29.94R
CANBY          PTCLDY    63  58  85 SW10      29.94R
MARSHALL       PTCLDY    58  56  93 W10       29.94R
REDWOOD FALLS  PTCLDY    59  55  87 W9        29.92R
OLIVIA         PTCLDY    55  54  94 W5        29.91R FOG
PIPESTONE      CLOUDY    55  55 100 W6        29.98R FOG
WINDOM         CLEAR     57  55  94 CALM      29.96R
WORTHINGTON    CLOUDY    58  57  97 W10       29.98S
JACKSON        PTCLDY    59  54  82 W12       29.98R
TRACY          CLEAR     59  56  91 W9        29.96R
SLAYTON        CLOUDY    58  57  99 W7        29.98R
$$
MNZ065>067-074>077-082>085-091>093-291200-
   South Central Minnesota

CITY           SKY/WX    TMP DP  RH WIND       PRES   REMARKS
MANKATO        CLOUDY    61  55  82 W9        29.91R
NEW ULM        CLOUDY    59  57  94 W9        29.92R
ST JAMES       CLOUDY    55  54  94 W9        29.95R
FAIRMONT       MOCLDY    57  54  88 W9        29.94R
GLENCOE        CLOUDY    62  60  95 W7        29.90R
FARIBAULT      CLOUDY    61  59  94 SW7       29.90R
OWATONNA       LGT RAIN  61  57  88 W12       29.90S
WASECA         PTCLDY    59  57  94 W10       29.93R FOG
ALBERT LEA     PTCLDY    57  57 100 W6        29.92R FOG
$$
MNZ078>079-086>088-094>096-291200-
   Southeast Minnesota

CITY           SKY/WX    TMP DP  RH WIND       PRES   REMARKS
ROCHESTER      CLOUDY    60  59  96 W13       29.91R
RED WING       CLOUDY    61  59  94 W5        29.86R FOG
STANTON        CLOUDY    62  59  90 SW7       29.88R FOG
DODGE CENTER   MOCLDY    59  57  94 W10       29.90R FOG
WINONA         CLOUDY    63  59  88 W9        29.87R
AUSTIN         PTCLDY    61  57  88 W6        29.92R FOG
PRESTON        CLOUDY    60  57  91 W9        29.91R
$$
ABBREVIATIONS USED IN REMARKS
   TC - TEMPERATURES IN CELSIUS
  WCI - WIND CHILL INDEX
   HX - HEAT INDEX
  VSB - VISIBILITY
$$



USA.gov is the U.S. government's official web portal to all federal, state and local government web resources and services.